Tracking 18850 objects as of 22-Nov-2017
HD Live streaming from Space Station
objects crossing your sky now

FENGYUN 1C DEB

Track FENGYUN 1C DEB now!
10-day predictions


NORAD ID: 30419
Int'l Code: 1999-025AEJ
Perigee: 820.7 km
Apogee: 901.4 km
Inclination: 99.3 °
Period: 102.0 minutes
Semi major axis: 7232 km
RCS: 0.025 m2 (small)
Launch date: May 10, 1999
Source: People's Republic of China (PRC)
Launch site: Taiyaun Space Center, China (TSC)

Note: This is SATELLITE DEBRIS
aabbcc
Your satellite tracking list
Your tracking list is empty




NASA's NSSDC Master Catalog

Two Line Element Set (TLE):
1 30419U 99025AEJ 17324.96141490 +.00000377 +00000-0 +23041-3 0  9993
2 30419 099.3143 124.5489 0055800 352.7243 129.6061 14.11604896557636
Source of the keplerian elements: AFSPC